Weather History for Plattsmouth, NE

Change the Weather History Date:

Friday, May 24, 2013

  Actual Average (KOFF) Record (KOFF)
Temperature  
Mean Temperature 62 °F -  
Max Temperature 75 °F 73 °F 87 °F (2006)
Min Temperature 50 °F 53 °F 42 °F (2002)
Degree Days  
Heating Degree Days 2    
Growing Degree Days 12 (Base 50)    
Moisture  
Dew Point 46 °F    
Average Humidity 54    
Maximum Humidity 77    
Minimum Humidity 33    
Precipitation  
Precipitation 0.00 in - - ()
Sea Level Pressure  
Sea Level Pressure 30.21 in    
Wind  
Wind Speed 10 mph (SE)    
Max Wind Speed 22 mph    
Max Gust Speed 30 mph    
Visibility 10 miles    
Events Thunderstorm    
Averages and records for this station are not official NWS values.
T = Trace of Precipitation, MM = Missing Value Source: NWS Daily Summary

Daily Weather History Graph

Daily Weather History Graph

Search for Another Location

Airport:

Trip Planner

Search our weather history database for the weather conditions in past years. The results will help you decide how hot, cold, wet, or windy it might be!

Date:

Astronomy

May. 24, 2013 Rise Set
Actual Time 5:58 AM CDT 8:43 PM CDT
Civil Twilight 5:26 AM CDT 9:15 PM CDT
Nautical Twilight 4:45 AM CDT 9:55 PM CDT
Astronomical Twilight 3:59 AM CDT 10:42 PM CDT
Moon 8:26 PM CDT 5:31 AM CDT
Length of Visible Light 15h 49m
Length of Day
14h 44m
Full, 100% of the Moon is Illuminated
May 24
Full
May 24
Full
May 31
Last Quarter
Jun 8
New
Jun 16
First Quarter

Hourly Weather History & Observations

Time (CDT) Temp. Dew Point Humidity Pressure Visibility Wind Dir Wind Speed Gust Speed Precip Events Conditions
12:15 AM 57.9 °F 43.5 °F 59% 30.24 in 10.0 mi ESE 4.6 mph - N/A   Clear
12:35 AM 56.8 °F 43.9 °F 62% 30.25 in 10.0 mi East 5.8 mph - N/A   Clear
12:55 AM 55.9 °F 44.2 °F 65% 30.25 in 10.0 mi East 5.8 mph - N/A   Clear
1:15 AM 55.6 °F 44.1 °F 65% 30.25 in 10.0 mi East 6.9 mph - N/A   Clear
1:35 AM 55.2 °F 44.2 °F 67% 30.24 in 10.0 mi East 6.9 mph - N/A   Clear
1:55 AM 54.5 °F 44.1 °F 68% 30.24 in 10.0 mi East 5.8 mph - N/A   Clear
2:15 AM 53.8 °F 44.1 °F 70% 30.24 in 10.0 mi ESE 6.9 mph - N/A   Clear
2:35 AM 54.0 °F 44.1 °F 69% 30.25 in 10.0 mi East 6.9 mph - N/A   Clear
2:55 AM 53.6 °F 44.1 °F 70% 30.25 in 10.0 mi East 8.1 mph - N/A   Clear
3:15 AM 53.6 °F 43.7 °F 69% 30.24 in 10.0 mi East 10.4 mph - N/A   Clear
3:35 AM 52.9 °F 43.7 °F 71% 30.25 in 10.0 mi ESE 6.9 mph - N/A   Clear
3:55 AM 53.1 °F 43.5 °F 70% 30.26 in 10.0 mi ESE 8.1 mph - N/A   Clear
4:15 AM 52.5 °F 43.7 °F 72% 30.26 in 10.0 mi ESE 9.2 mph - N/A   Clear
4:35 AM 50.9 °F 43.9 °F 77% 30.26 in 10.0 mi ESE 5.8 mph - N/A   Clear
4:55 AM 51.8 °F 43.7 °F 74% 30.27 in 10.0 mi ESE 10.4 mph - N/A   Clear
5:15 AM 51.4 °F 43.3 °F 74% 30.26 in 10.0 mi East 10.4 mph - N/A   Clear
5:35 AM 51.1 °F 43.3 °F 75% 30.28 in 10.0 mi ESE 8.1 mph - N/A   Clear
5:55 AM 51.1 °F 43.3 °F 75% 30.28 in 10.0 mi SE 5.8 mph - N/A   Clear
6:15 AM 50.9 °F 43.7 °F 76% 30.29 in 10.0 mi ESE 5.8 mph - N/A   Clear
6:35 AM 51.3 °F 43.7 °F 75% 30.29 in 10.0 mi SE 5.8 mph - N/A   Clear
6:55 AM 52.3 °F 43.9 °F 73% 30.30 in 10.0 mi SE 6.9 mph - N/A   Clear
7:15 AM 53.6 °F 44.6 °F 72% 30.30 in 10.0 mi SE 8.1 mph - N/A   Clear
7:35 AM 54.7 °F 44.8 °F 69% 30.30 in 10.0 mi SE 9.2 mph - N/A   Clear
7:55 AM 56.5 °F 46.0 °F 68% 30.30 in 10.0 mi SE 8.1 mph - N/A   Mostly Cloudy
8:15 AM 56.7 °F 46.8 °F 69% 30.30 in 10.0 mi SE 5.8 mph - N/A   Mostly Cloudy
8:35 AM 58.6 °F 47.7 °F 67% 30.30 in 10.0 mi SE 8.1 mph - N/A   Scattered Clouds
8:55 AM 60.6 °F 48.9 °F 65% 30.30 in 10.0 mi SE 6.9 mph - N/A   Scattered Clouds
9:15 AM 61.9 °F 48.9 °F 62% 30.29 in 7.0 mi SE 8.1 mph - N/A   Clear
9:35 AM 62.8 °F 48.6 °F 60% 30.28 in 10.0 mi SE 12.7 mph 18.4 mph N/A   Clear
9:55 AM 64.4 °F 48.0 °F 55% 30.29 in 10.0 mi SE 17.3 mph 23.0 mph N/A   Clear
10:15 AM 65.3 °F 48.6 °F 55% 30.28 in 10.0 mi SE 12.7 mph 21.9 mph N/A   Clear
10:35 AM 66.0 °F 48.4 °F 53% 30.28 in 10.0 mi SSE 18.4 mph 25.3 mph N/A   Scattered Clouds
10:55 AM 66.7 °F 49.3 °F 53% 30.26 in 7.0 mi SSE 16.1 mph 21.9 mph N/A   Scattered Clouds
11:15 AM 66.9 °F 49.1 °F 53% 30.25 in 10.0 mi SSE 21.9 mph 26.5 mph N/A   Mostly Cloudy
11:35 AM 67.6 °F 49.1 °F 51% 30.24 in 10.0 mi SE 20.7 mph 27.6 mph N/A   Scattered Clouds
11:55 AM 68.9 °F 49.3 °F 50% 30.24 in 10.0 mi SE 17.3 mph 26.5 mph N/A   Clear
12:15 PM 68.9 °F 48.6 °F 48% 30.26 in 10.0 mi SSE 19.6 mph 27.6 mph N/A   Clear
12:35 PM 69.8 °F 49.3 °F 48% 30.25 in 10.0 mi SSE 13.8 mph 24.2 mph N/A   Scattered Clouds
12:55 PM 71.2 °F 48.2 °F 44% 30.25 in 10.0 mi SSE 18.4 mph 29.9 mph N/A   Mostly Cloudy
1:15 PM 70.7 °F 47.7 °F 44% 30.25 in 10.0 mi South 18.4 mph 26.5 mph N/A   Scattered Clouds
1:35 PM 72.3 °F 47.8 °F 42% 30.24 in 10.0 mi SE 13.8 mph 25.3 mph N/A   Clear
1:55 PM 72.5 °F 45.9 °F 39% 30.23 in 10.0 mi SSE 17.3 mph 26.5 mph N/A   Scattered Clouds
2:15 PM 71.1 °F 46.6 °F 42% 30.22 in 10.0 mi SSE 13.8 mph 23.0 mph N/A   Mostly Cloudy
2:35 PM 70.9 °F 46.0 °F 41% 30.21 in 10.0 mi SE 12.7 mph 23.0 mph N/A   Overcast
2:55 PM 71.6 °F 46.9 °F 41% 30.21 in 10.0 mi SSE 16.1 mph 21.9 mph N/A   Overcast
3:15 PM 71.6 °F 46.0 °F 40% 30.20 in 10.0 mi SSE 17.3 mph 23.0 mph N/A   Overcast
3:35 PM 71.6 °F 45.9 °F 40% 30.19 in 10.0 mi SSE 15.0 mph 18.4 mph N/A   Overcast
3:55 PM 74.1 °F 46.4 °F 37% 30.17 in 10.0 mi SE 21.9 mph 25.3 mph N/A   Overcast
4:15 PM 74.1 °F 46.6 °F 37% 30.16 in 10.0 mi SSE 16.1 mph 28.8 mph N/A   Scattered Clouds
4:35 PM 75.2 °F 44.8 °F 34% 30.14 in 10.0 mi SE 19.6 mph 26.5 mph N/A   Clear
4:55 PM 75.4 °F 44.2 °F 33% 30.13 in 10.0 mi SSE 19.6 mph 26.5 mph N/A   Clear
5:15 PM 73.6 °F 43.9 °F 34% 30.11 in 10.0 mi SE 21.9 mph 27.6 mph N/A   Clear
5:35 PM 74.3 °F 45.3 °F 36% 30.11 in 10.0 mi SSE 15.0 mph 20.7 mph N/A   Clear
5:55 PM 74.3 °F 44.6 °F 35% 30.11 in 10.0 mi SSE 20.7 mph 26.5 mph N/A   Clear
6:15 PM 73.4 °F 45.0 °F 36% 30.10 in 10.0 mi SE 16.1 mph 21.9 mph N/A   Clear
6:35 PM 73.2 °F 45.0 °F 36% 30.09 in 10.0 mi SSE 16.1 mph 25.3 mph N/A   Clear
6:55 PM 72.3 °F 45.1 °F 38% 30.08 in 10.0 mi SE 15.0 mph 21.9 mph N/A   Clear
7:15 PM 72.0 °F 45.7 °F 39% 30.06 in 10.0 mi SE 13.8 mph 24.2 mph N/A   Clear
7:35 PM 71.4 °F 46.0 °F 40% 30.04 in 10.0 mi SE 13.8 mph 26.5 mph N/A   Clear
7:55 PM 70.7 °F 46.0 °F 41% 30.06 in 10.0 mi SE 12.7 mph 21.9 mph N/A   Clear
8:15 PM 70.0 °F 46.2 °F 43% 30.08 in 10.0 mi SE 11.5 mph 23.0 mph N/A   Clear
8:35 PM 69.3 °F 46.0 °F 43% 30.07 in 10.0 mi SE 15.0 mph 18.4 mph N/A   Clear
8:55 PM 68.9 °F 46.2 °F 44% 30.02 in 10.0 mi SE 19.6 mph 25.3 mph N/A   Clear
9:15 PM 68.0 °F 46.6 °F 46% 30.04 in 10.0 mi SE 16.1 mph 27.6 mph N/A   Clear
9:35 PM 67.6 °F 46.4 °F 46% 30.10 in 10.0 mi SSE 9.2 mph 18.4 mph N/A   Clear
9:55 PM 67.3 °F 46.8 °F 48% 30.13 in 10.0 mi SE 4.6 mph - N/A   Mostly Cloudy
10:15 PM 67.3 °F 46.6 °F 47% 30.14 in 10.0 mi SE 8.1 mph - N/A   Overcast
10:35 PM 67.1 °F 46.6 °F 48% 30.16 in 10.0 mi ESE 9.2 mph - N/A   Overcast
10:55 PM 66.7 °F 46.6 °F 48% 30.16 in 10.0 mi ESE 8.1 mph - N/A   Overcast
11:15 PM 66.6 °F 46.6 °F 49% 30.15 in 10.0 mi ESE 10.4 mph - N/A Thunderstorm Overcast
11:35 PM 66.2 °F 46.4 °F 49% 30.14 in 10.0 mi ESE 11.5 mph - N/A   Overcast
11:55 PM 65.7 °F 46.0 °F 49% 30.14 in 10.0 mi ESE 12.7 mph 18.4 mph N/A   Overcast